SL-14 R/B

基本信息
目录编号:
16720
目录名称:
SL-14 R/B
国际标识:
1986-034B
轨道中心:
EARTH
物体状态:
在轨
发射日期:
1986-05-15 UTC
国别:
俄罗斯(独联体) (CIS)
轨道信息
数据来源: 国际轨道数据
星历时间: 2026-09-12T01:58:35+0800
半长轴: 6989.243km
偏心率: 0.0020579
轨道倾角: 82.556°
近地点辐角: 118.195°
升交点赤经: 332.876°
平近点角: 6.196°
近地点: 596.722km
远地点: 625.49km
周期: 96.918分钟
每日圈数: 14.857905
详细信息
发射场:
PKMTR
轨道高度:
LEO
数据来源:
AOE Integration Group
参考系:
TEME
时间系统:
UTC
历元类型:
SGP4
2D轨道图
3D轨道图
轨道高度分析图
轨道倾角分析图
轨道综合分析图
查看轨道综合分析图